EW3511 Weather Reports


Display with metric or nautical units.
time (UTC)temp
F
wind
direction
speed
MPH
gust
MPH
rain 1hr
in
rain 24hr
in
rain mn
in
humidity
%
barometer
mb
20260504043119 54 119 0.0 1.0 0.00 0.00 0.00 74 1014.5
20260504042100 52 0.0 0.0 0.00 0.00 0.00 78 1014.5
20260504041032 51 0.0 0.0 0.00 0.00 0.00 79 1014.4
20260504040033 52 0.0 0.0 0.00 0.00 0.00 78 1014.5
20260504035033 53 0.0 0.0 0.00 0.00 0.00 76 1014.5
20260504034034 54 0.0 0.0 0.00 0.00 0.00 74 1014.6
20260504033034 54 0.0 0.0 0.00 0.00 0.00 73 1014.6
20260504032037 55 0.0 0.0 0.00 0.00 0.00 72 1014.5
20260504031035 55 0.0 0.0 0.00 0.00 0.00 71 1014.6
20260504030035 56 0.0 0.0 0.00 0.00 0.00 70 1014.6
20260504025036 57 144 0.0 1.0 0.00 0.00 0.00 68 1014.6
20260504024037 56 131 0.0 1.0 0.00 0.00 0.00 69 1014.7
20260504023036 57 119 0.0 1.0 0.00 0.00 0.00 68 1014.7
20260504022037 57 113 0.0 2.0 0.00 0.00 0.00 67 1014.9
20260504021037 58 173 0.0 2.0 0.00 0.00 0.00 66 1014.7
20260504020038 58 154 1.0 5.0 0.00 0.00 0.00 66 1014.7
20260504015039 58 154 1.0 2.0 0.00 0.00 0.00 67 1014.8
20260504014038 59 108 0.0 2.0 0.00 0.00 0.00 67 1014.8
20260504013039 59 221 1.0 6.0 0.00 0.00 0.00 67 1014.6
20260504012040 59 122 1.0 3.0 0.00 0.00 0.00 67 1014.6
20260504011040 60 135 1.0 3.0 0.00 0.00 0.00 65 1014.6
20260504010040 60 114 1.0 2.0 0.00 0.00 0.00 64 1014.4
20260504005041 60 128 1.0 8.0 0.00 0.00 0.00 64 1014.4
20260504004101 60 141 2.0 7.0 0.00 0.00 0.00 65 1014.3
20260504003042 61 97 1.0 6.0 0.00 0.00 0.00 65 1014.3
20260504002042 61 88 1.0 2.0 0.00 0.00 0.00 64 1014.1
20260504001042 61 122 2.0 5.0 0.00 0.00 0.00 63 1014.0
20260504000044 61 131 1.0 9.0 0.00 0.00 0.00 62 1013.9
20260503235043 61 218 2.0 9.0 0.00 0.00 0.00 61 1013.8
20260503234044 62 131 1.0 2.0 0.00 0.00 0.00 60 1013.8
20260503233044 62 154 2.0 6.0 0.00 0.00 0.00 59 1013.6
20260503232045 61 200 2.0 5.0 0.00 0.00 0.00 58 1013.5
20260503231045 60 208 1.0 7.0 0.00 0.00 0.00 59 1013.3
20260503230045 60 142 0.0 1.0 0.00 0.00 0.00 60 1013.2
20260503225045 60 115 0.0 1.0 0.00 0.00 0.00 60 1013.1
20260503224047 60 0.0 0.0 0.00 0.00 0.00 59 1013.1
20260503223127 60 0.0 0.0 0.00 0.00 0.00 59 1013.0
20260503222048 60 93 0.0 1.0 0.00 0.00 0.00 59 1012.9
20260503221109 60 56 0.0 1.0 0.00 0.00 0.00 59 1012.8
20260503220048 59 93 0.0 1.0 0.00 0.00 0.00 60 1012.7
20260503215108 59 0.0 0.0 0.00 0.00 0.00 61 1012.8
20260503214048 61 0.0 0.0 0.00 0.00 0.00 58 1012.5
20260503213049 62 120 0.0 5.0 0.00 0.00 0.00 56 1012.2
20260503212130 60 332 0.0 2.0 0.00 0.00 0.00 59 1012.2
20260503211049 60 0.0 0.0 0.00 0.00 0.00 59 1012.1
20260503210051 61 0.0 0.0 0.00 0.00 0.00 57 1012.1
20260503205050 62 0.0 0.0 0.00 0.00 0.00 56 1012.0
20260503204111 62 0.0 0.0 0.00 0.00 0.00 55 1012.0
20260503203052 63 0.0 0.0 0.00 0.00 0.00 54 1011.8
20260503202053 64 0.0 0.0 0.00 0.00 0.00 53 1011.9
20260503201112 64 0.0 1.0 0.00 0.00 0.00 53 1011.8
20260503200113 64 155 0.0 1.0 0.00 0.00 0.00 54 1011.7
20260503195053 64 0.0 0.0 0.00 0.00 0.00 53 1011.7
20260503194054 64 0.0 0.0 0.00 0.00 0.00 52 1011.7
20260503193054 66 0.0 0.0 0.00 0.00 0.00 50 1011.6
20260503192114 66 93 0.0 1.0 0.00 0.00 0.00 50 1011.6
20260503191055 67 0.0 1.0 0.00 0.00 0.00 49 1011.5
20260503190056 67 142 1.0 2.0 0.00 0.00 0.00 49 1011.4
20260503185057 67 90 1.0 2.0 0.00 0.00 0.00 50 1011.4
20260503184056 68 83 0.0 1.0 0.00 0.00 0.00 49 1011.1
20260503183057 68 87 1.0 2.0 0.00 0.00 0.00 49 1011.0
20260503182057 68 0.0 0.0 0.00 0.00 0.00 50 1010.9
20260503181118 70 90 0.0 2.0 0.00 0.00 0.00 45 1010.8
20260503180058 71 67 1.0 3.0 0.00 0.00 0.00 44 1010.6
20260503175118 71 62 1.0 3.0 0.00 0.00 0.00 46 1010.6
20260503174059 72 80 0.0 2.0 0.00 0.00 0.00 45 1010.5
20260503173119 72 82 1.0 2.0 0.00 0.00 0.00 46 1010.5
20260503172059 74 50 1.0 7.0 0.00 0.00 0.00 42 1010.6
20260503171101 76 4 2.0 6.0 0.00 0.00 0.00 39 1010.5
20260503160123 80 68 1.0 2.0 0.00 0.00 0.00 36 1010.2
20260503131058 80 0 2.0 7.0 0.00 0.00 0.00 31 1011.6
20260503090108 72 139 0.0 1.0 0.00 0.00 0.00 45 1014.8
20260503081050 68 116 2.0 3.0 0.00 0.00 0.00 48 1015.2
20260503080110 68 93 1.0 5.0 0.00 0.00 0.00 47 1015.2
20260503072052 66 157 1.0 2.0 0.00 0.00 0.00 50 1015.3
20260503071053 65 121 1.0 3.0 0.00 0.00 0.00 50 1015.2
20260503060116 59 0.0 0.0 0.00 0.00 0.00 62 1015.3
20260503055056 60 0.0 0.0 0.00 0.00 0.00 60 1015.3
20260503054057 54 0.0 0.0 0.00 0.00 0.00 68 1015.2
20260503053058 51 0.0 0.0 0.00 0.00 0.00 74 1015.2
20260503052117 50 93 0.0 1.0 0.00 0.00 0.00 75 1015.4
20260503051118 48 0.0 0.0 0.00 0.00 0.00 78 1015.3
20260503050138 50 0.0 0.0 0.00 0.00 0.00 76 1015.4
20260503045058 48 0.0 0.0 0.00 0.00 0.00 79 1015.4
20260503044059 46 122 0.0 1.0 0.00 0.00 0.00 82 1015.3